Regional Weather Roundup
Issued by NWS

Home | Current Version | Previous Version | Text Only | Print | Product List | Glossary Off
Versions: 1 2 3 4 5 6 7 8 9 10 11 12 13 14 15 16 17 18 19 20 21 22 23 24 25 26 27 28 29 30 31 32 33 34 35 36 37 38 39 40 41 42 43 44 45 46 47 48 49 50

000
ASUS43 KLSX 141757
RWRMO

WEATHER SUMMARY FOR MISSOURI
NATIONAL WEATHER SERVICE SPRINGFIELD MO
1200 PM CST THU DEC 14 2017

NOTE: "FAIR" INDICATES FEW OR NO CLOUDS BELOW 12,000 FEET WITH NO
       SIGNIFICANT WEATHER AND/OR OBSTRUCTIONS TO VISIBILITY.
       CURRENT SKY AND/OR WEATHER CONDITIONS ARE NOT AVAILABLE FOR
       CHILLICOTHE AND FARMINGTON.

MOZ001>031-035>038-043-044-053-054-141900-
...NORTHERN AND WESTERN MISSOURI...

CITY           SKY/WX    TMP DP  RH WIND       PRES   REMARKS
KANSAS CTY INT CLOUDY    38  25  59 NW7       30.09F
6HR MIN TEMP:  35; 6HR MAX TEMP:  39;

LEE`S SUMMIT   CLOUDY    38  25  59 N8        30.09F
6HR MIN TEMP:  36; 6HR MAX TEMP:  38;

ST JOSEPH      CLOUDY    39  26  59 NW8       30.10F
6HR MIN TEMP:  34; 6HR MAX TEMP:  39;

CHILLICOTHE      N/A     34  21  59 VRB3      30.11F
6HR MIN TEMP:  28; 6HR MAX TEMP:  34;


$$
MOZ066>068-077>081-088>096-101>105-141900-
...SOUTHWEST MISSOURI...

CITY           SKY/WX    TMP DP  RH WIND       PRES   REMARKS
SPRINGFIELD    CLOUDY    39  22  50 N17       30.07F WCI  30
6HR MIN TEMP:  34; 6HR MAX TEMP:  39;

JOPLIN         CLOUDY    40  27  59 N6        30.12F
6HR MIN TEMP:  27; 6HR MAX TEMP:  40;

BRANSON        CLOUDY    39  21  48 N10       30.08F

$$
MOZ032>034-039>042-045>050-055>058-069>072-141900-
...CENTRAL MISSOURI...

CITY           SKY/WX    TMP DP  RH WIND       PRES   REMARKS
COLUMBIA       NOT AVBL
JEFFERSON CITY CLOUDY    35  22  58 N5        30.09F
6HR MIN TEMP:  33; 6HR MAX TEMP:  35;

ROLLA          CLOUDY    34  23  64 NW7       30.05F WCI  28
6HR MIN TEMP:  30; 6HR MAX TEMP:  34;

SEDALIA        CLOUDY    36  24  62 N12       30.11F WCI  28
6HR MIN TEMP:  29; 6HR MAX TEMP:  37;

WARRENSBURG    CLOUDY    36  23  60 CALM      30.11F

$$
MOZ051-052-059>065-141900-
...EAST CENTRAL MISSOURI...

CITY           SKY/WX    TMP DP  RH WIND       PRES   REMARKS
ST LOUIS INTL  CLOUDY    32  18  56 VRB3      30.10S
6HR MIN TEMP:  29; 6HR MAX TEMP:  32;


$$
MOZ072>076-082>087-097>100-106>115-141900-
...SOUTH CENTRAL AND SOUTHEAST MISSOURI...

CITY           SKY/WX    TMP DP  RH WIND       PRES   REMARKS
CAPE GIRARDEAU CLOUDY    35  22  58 N10       30.08F WCI  27
6HR MIN TEMP:  35; 6HR MAX TEMP:  37;

POPLAR BLUFF   CLOUDY    41  23  48 N10       30.07F
6HR MIN TEMP:  37; 6HR MAX TEMP:  44;

WEST PLAINS    CLOUDY    43  22  43 NW8       30.05F
6HR MIN TEMP:  31; 6HR MAX TEMP:  43;


$$



USA.gov is the U.S. government's official web portal to all federal, state and local government web resources and services.